﻿_id,日時,平均風速(m/s),平均風向,最大瞬間風速(m/s),最大風速時風向,気温(℃),湿度(%),10分間移動積算雨量(mm),1時間移動積算雨量(mm),日雨量(mm),累計雨量(mm)
1,2024-02-26T00:00:00,2.1,北北西,3.1,北西,4.3,91.8,0,0,19.5,19.5
2,2024-02-26T00:01:00,2,北北西,2.9,北,4.2,92.7,0,0,0,19.5
3,2024-02-26T00:02:00,1.9,北北西,2.9,北,4.3,93.7,0,0,0,19.5
4,2024-02-26T00:03:00,1.9,北,2.9,北,4.3,94.4,0,0,0,19.5
5,2024-02-26T00:04:00,1.9,北,2.9,北,4.3,94.8,0,0,0,19.5
6,2024-02-26T00:05:00,1.9,北,2.9,北,4.4,94.9,0,0,0,19.5
7,2024-02-26T00:06:00,1.9,北,2.9,北,4.3,95.1,0,0,0,19.5
8,2024-02-26T00:07:00,1.9,北,2.9,北,4.3,95.1,0,0,0,19.5
9,2024-02-26T00:08:00,1.9,北,2.9,北,4.4,95.2,0,0,0,19.5
10,2024-02-26T00:09:00,1.8,北,2.9,北,4.3,95.3,0,0,0,19.5
11,2024-02-26T00:10:00,1.8,北,2.9,北,4.3,95.2,0,0,0,19.5
12,2024-02-26T00:11:00,1.9,北,2.9,北,4.3,95.3,0,0,0,19.5
13,2024-02-26T00:12:00,1.9,北,2.9,北,4.3,95.4,0,0,0,19.5
14,2024-02-26T00:13:00,1.9,北,3.1,北北西,4.4,95.4,0,0,0,19.5
15,2024-02-26T00:14:00,1.9,北,3.1,北北西,4.5,95.2,0,0,0,19.5
16,2024-02-26T00:15:00,1.8,北,3.1,北北西,4.4,94.8,0,0,0,19.5
17,2024-02-26T00:16:00,1.8,北,3.1,北北西,4.7,94.4,0,0,0,19.5
18,2024-02-26T00:17:00,1.9,北,3.5,北北西,4.7,93.2,0,0,0,19.5
19,2024-02-26T00:18:00,1.8,北,3.5,北北西,4.7,92.4,0,0,0,19.5
20,2024-02-26T00:19:00,2,北北西,5.1,北北西,4.9,91,0,0,0,19.5
21,2024-02-26T00:20:00,2.1,北北西,5.1,北北西,5.2,88.5,0,0,0,19.5
22,2024-02-26T00:21:00,2.2,北北西,5.1,北北西,5.4,86.2,0,0,0,19.5
23,2024-02-26T00:22:00,2.3,北北西,5.4,北西,5.5,84.9,0,0,0,19.5
24,2024-02-26T00:23:00,2.4,北北西,5.4,北西,5.5,84.1,0,0,0,19.5
25,2024-02-26T00:24:00,2.6,北北西,5.4,北西,5.5,83.6,0,0,0,19.5
26,2024-02-26T00:25:00,2.7,北西,5.4,北西,5.5,83.5,0,0,0,19.5
27,2024-02-26T00:26:00,2.7,北西,5.4,北西,5.4,83.4,0,0,0,19.5
28,2024-02-26T00:27:00,2.6,北西,5.4,北西,5.3,83.8,0,0,0,19.5
29,2024-02-26T00:28:00,2.6,北西,5.4,北西,5,85.3,0,0,0,19.5
30,2024-02-26T00:29:00,2.5,北西,5.4,北西,4.9,86.7,0,0,0,19.5
31,2024-02-26T00:30:00,2.3,北北西,5.4,北西,4.8,87.7,0,0,0,19.5
32,2024-02-26T00:31:00,,"",,"",,,,,,
33,2024-02-26T00:32:00,2.1,北北西,4.8,西北西,4.7,89.3,0,0,0,19.5
34,2024-02-26T00:33:00,2,北北西,4.4,北北西,4.8,89.3,0,0,0,19.5
35,2024-02-26T00:34:00,1.9,北北西,4.4,北北西,4.7,89.6,0,0,0,19.5
36,2024-02-26T00:35:00,1.8,北,4.4,北北西,4.7,90,0,0,0,19.5
37,2024-02-26T00:36:00,1.8,北,3.4,北北西,4.7,90.2,0,0,0,19.5
38,2024-02-26T00:37:00,1.8,北,3.4,北北西,4.6,90.2,0,0,0,19.5
39,2024-02-26T00:38:00,1.8,北,3.4,北北西,4.6,90.5,0,0,0,19.5
40,2024-02-26T00:39:00,1.9,北,3.4,北北西,4.6,90.9,0,0,0,19.5
41,2024-02-26T00:40:00,1.9,北,3.4,北北西,4.5,91.1,0,0,0,19.5
42,2024-02-26T00:41:00,1.9,北,3.4,北北西,4.5,91.3,0,0,0,19.5
43,2024-02-26T00:42:00,1.9,北,3.4,北北西,4.6,91.3,0,0,0,19.5
44,2024-02-26T00:43:00,1.9,北,3.4,北北西,4.5,91.3,0,0,0,19.5
45,2024-02-26T00:44:00,1.8,北北東,3.1,北北東,4.5,91.5,0,0,0,19.5
46,2024-02-26T00:45:00,1.8,北北東,3.1,北北東,4.5,91.9,0,0,0,19.5
47,2024-02-26T00:46:00,1.7,北北東,3.1,北北東,4.4,92.1,0,0,0,19.5
48,2024-02-26T00:47:00,1.7,北北東,3.1,北北東,4.5,92.3,0,0,0,19.5
49,2024-02-26T00:48:00,1.7,北北東,3.1,北北東,4.5,92.2,0,0,0,19.5
50,2024-02-26T00:49:00,1.5,北,3.1,北北東,4.5,92.1,0,0,0,19.5
51,2024-02-26T00:50:00,1.3,北,3.1,北北東,4.5,91.9,0,0,0,19.5
52,2024-02-26T00:51:00,1.2,北,3.1,北北東,4.5,91.9,0,0,0,19.5
53,2024-02-26T00:52:00,1.1,北,2.3,北北東,4.5,91.8,0,0,0,19.5
54,2024-02-26T00:53:00,1,北北西,2.3,北北西,4.6,91.6,0,0,0,19.5
55,2024-02-26T00:54:00,1.1,北北西,2.3,北北西,4.7,91,0,0,0,19.5
56,2024-02-26T00:55:00,1.1,北北西,2.3,北北西,4.6,90.8,0,0,0,19.5
57,2024-02-26T00:56:00,1,北北西,2.3,北北西,4.5,90.9,0,0,0,19.5
58,2024-02-26T00:57:00,1,北北西,2.3,北北西,4.5,91.2,0,0,0,19.5
59,2024-02-26T00:58:00,1,北北西,2.3,北北西,4.5,91.4,0,0,0,19.5
60,2024-02-26T00:59:00,1.1,北北西,2.3,北北西,4.6,91.4,0,0,0,19.5
61,2024-02-26T01:00:00,1.1,北北西,2.3,北北西,4.6,91.2,0,0,0,19.5
62,2024-02-26T01:01:00,1.1,北,2.3,北北西,4.6,90.9,0,0,0,19.5
63,2024-02-26T01:02:00,1.1,北,2.3,北北西,4.6,90.8,0,0,0,19.5
64,2024-02-26T01:03:00,1.1,北,2.1,北北西,4.6,90.8,0,0,0,19.5
65,2024-02-26T01:04:00,1.1,北,2,北北東,4.6,90.5,0,0,0,19.5
66,2024-02-26T01:05:00,1,北,2,北北東,4.5,90.5,0,0,0,19.5
67,2024-02-26T01:06:00,1.1,北,2,北北東,4.5,90.7,0,0,0,19.5
68,2024-02-26T01:07:00,1,北,2,北北東,4.4,91,0,0,0,19.5
69,2024-02-26T01:08:00,1.1,北,2,北北東,4.5,91.1,0,0,0,19.5
70,2024-02-26T01:09:00,1.1,北,2,北北東,4.5,91.2,0,0,0,19.5
71,2024-02-26T01:10:00,1.1,北,2,北北東,4.5,91.2,0,0,0,19.5
72,2024-02-26T01:11:00,1.2,北,2,北北東,4.5,91.1,0,0,0,19.5
73,2024-02-26T01:12:00,1.2,北,2,北北東,4.5,90.8,0,0,0,19.5
74,2024-02-26T01:13:00,1.2,北,2,北北西,4.3,90.7,0,0,0,19.5
75,2024-02-26T01:14:00,1.2,北,2.3,北北西,4.3,91.5,0,0,0,19.5
76,2024-02-26T01:15:00,1.3,北,2.4,北北西,4.4,92.1,0,0,0,19.5
77,2024-02-26T01:16:00,1.3,北,2.4,北北西,4.4,92,0,0,0,19.5
78,2024-02-26T01:17:00,1.4,北,2.4,北北西,4.4,91.9,0,0,0,19.5
79,2024-02-26T01:18:00,1.3,北,2.4,北北西,4.4,91.7,0,0,0,19.5
80,2024-02-26T01:19:00,1.3,北,2.4,北北西,4.4,91.6,0,0,0,19.5
81,2024-02-26T01:20:00,1.4,北,2.4,北北西,4.4,91.5,0,0,0,19.5
82,2024-02-26T01:21:00,1.4,北,2.9,北北西,4.4,91.5,0,0,0,19.5
83,2024-02-26T01:22:00,1.5,北,2.9,北北西,4.3,91,0,0,0,19.5
84,2024-02-26T01:23:00,1.5,北,2.9,北北西,4.2,91.5,0,0,0,19.5
85,2024-02-26T01:24:00,1.5,北,2.9,北北西,4.2,91.9,0,0,0,19.5
86,2024-02-26T01:25:00,1.6,北,2.9,北北西,4.2,91.9,0,0,0,19.5
87,2024-02-26T01:26:00,1.6,北,2.9,北北西,4.1,91.9,0,0,0,19.5
88,2024-02-26T01:27:00,1.6,北,2.9,北北西,4.1,92.2,0,0,0,19.5
89,2024-02-26T01:28:00,1.7,北,2.9,北北西,4.1,92.7,0,0,0,19.5
90,2024-02-26T01:29:00,1.7,北,2.9,北北西,4,92.8,0,0,0,19.5
91,2024-02-26T01:30:00,1.7,北,2.9,北北西,3.9,93,0,0,0,19.5
92,2024-02-26T01:31:00,1.7,北,2.8,北北西,3.9,93.3,0,0,0,19.5
93,2024-02-26T01:32:00,1.6,北,2.8,北北西,3.8,93.5,0,0,0,19.5
94,2024-02-26T01:33:00,1.6,北,2.8,北北西,3.8,94,0,0,0,19.5
95,2024-02-26T01:34:00,1.6,北,2.8,北北西,3.7,94.3,0,0,0,19.5
96,2024-02-26T01:35:00,1.6,北,2.8,北北西,3.8,94.8,0,0,0,19.5
97,2024-02-26T01:36:00,1.6,北,2.9,北北西,3.9,95,0,0,0,19.5
98,2024-02-26T01:37:00,1.7,北,3,北西,4,95.1,0,0,0,19.5
99,2024-02-26T01:38:00,1.7,北,3,北西,4,94.7,0,0,0,19.5
100,2024-02-26T01:39:00,1.8,北北西,3,北西,4.5,94.1,0,0,0,19.5
101,2024-02-26T01:40:00,1.7,北北西,3,北西,4.2,91.7,0,0,0,19.5
102,2024-02-26T01:41:00,1.7,北北西,3,北西,4,91.4,0,0,0,19.5
103,2024-02-26T01:42:00,1.8,北北西,3.1,北北西,3.9,91.7,0,0,0,19.5
104,2024-02-26T01:43:00,1.9,北北西,3.5,北北西,3.9,92.4,0,0,0,19.5
105,2024-02-26T01:44:00,2,北北西,3.5,北北西,3.7,92.4,0,0,0,19.5
106,2024-02-26T01:45:00,2.1,北北西,3.7,北北西,3.7,93,0,0,0,19.5
107,2024-02-26T01:46:00,2.1,北北西,3.7,北北西,3.8,93.9,0,0,0,19.5
108,2024-02-26T01:47:00,2.1,北北西,3.7,北北西,3.8,94.5,0,0,0,19.5
109,2024-02-26T01:48:00,2.1,北北西,3.7,北北西,3.8,94.6,0,0,0,19.5
110,2024-02-26T01:49:00,2.2,北,3.7,北北西,3.7,94.2,0,0,0,19.5
111,2024-02-26T01:50:00,2.3,北,4.8,北,3.7,94.2,0,0,0,19.5
112,2024-02-26T01:51:00,2.4,北,4.8,北,4.3,94.4,0,0,0,19.5
113,2024-02-26T01:52:00,2.4,北,4.8,北,4.1,92.9,0,0,0,19.5
114,2024-02-26T01:53:00,2.5,北,4.8,北,3.9,92.5,0,0,0,19.5
115,2024-02-26T01:54:00,2.6,北,4.8,北,3.8,93.1,0,0,0,19.5
116,2024-02-26T01:55:00,2.6,北,4.8,北,4,93.8,0,0,0,19.5
117,2024-02-26T01:56:00,2.8,北,5.5,北,4.5,93.3,0,0,0,19.5
118,2024-02-26T01:57:00,3.1,北北西,7.6,西北西,5,90.2,0,0,0,19.5
119,2024-02-26T01:58:00,3.2,北北西,7.6,西北西,5.2,86.7,0,0,0,19.5
120,2024-02-26T01:59:00,3.2,北北西,7.6,西北西,5,85.7,0,0,0,19.5
121,2024-02-26T02:00:00,3.2,北北西,7.6,西北西,4.9,85.9,0,0,0,19.5
122,2024-02-26T02:01:00,3.1,北北西,7.6,西北西,5,84.3,0,0,0,19.5
123,2024-02-26T02:02:00,3.1,北北西,7.6,西北西,4.6,85.7,0,0,0,19.5
124,2024-02-26T02:03:00,3,北北西,7.6,西北西,4.4,87.7,0,0,0,19.5
125,2024-02-26T02:04:00,3.1,北北西,7.6,西北西,4.4,88.5,0,0,0,19.5
126,2024-02-26T02:05:00,3.1,北北西,7.6,西北西,4.5,89,0,0,0,19.5
127,2024-02-26T02:06:00,3.1,北北西,7.6,西北西,4.6,88.7,0,0,0,19.5
128,2024-02-26T02:07:00,2.9,北北西,5.7,北西,4.8,87.7,0,0,0,19.5
129,2024-02-26T02:08:00,2.8,北北西,5.7,北西,5,85.7,0,0,0,19.5
130,2024-02-26T02:09:00,3,北西,5.9,北西,5,84.9,0,0,0,19.5
131,2024-02-26T02:10:00,3.2,北西,5.9,北西,5.1,84.7,0,0,0,19.5
132,2024-02-26T02:11:00,3.3,北西,5.9,北西,5.2,84.2,0,0,0,19.5
133,2024-02-26T02:12:00,3.5,北西,5.9,北西,5.1,84.1,0,0,0,19.5
134,2024-02-26T02:13:00,3.5,北西,5.9,北西,5.2,83.9,0,0,0,19.5
135,2024-02-26T02:14:00,3.6,北西,6.1,北北西,5.2,83.8,0,0,0,19.5
136,2024-02-26T02:15:00,3.7,北西,6.1,北北西,5.1,84.3,0,0,0,19.5
137,2024-02-26T02:16:00,3.6,北西,6.1,北北西,5.1,84.3,0,0,0,19.5
138,2024-02-26T02:17:00,3.4,北西,6.1,北北西,4.9,84.8,0,0,0,19.5
139,2024-02-26T02:18:00,3.3,北西,6.1,北北西,4.8,85.6,0,0,0,19.5
140,2024-02-26T02:19:00,3.1,北西,6.1,北北西,4.7,86.4,0,0,0,19.5
141,2024-02-26T02:20:00,2.9,北西,6.1,北北西,4.6,87,0,0,0,19.5
142,2024-02-26T02:21:00,2.8,北北西,6.1,北北西,4.5,87.8,0,0,0,19.5
143,2024-02-26T02:22:00,2.7,北北西,6.1,北北西,4.6,88.4,0,0,0,19.5
144,2024-02-26T02:23:00,2.6,北北西,6.1,北北西,4.5,88.5,0,0,0,19.5
145,2024-02-26T02:24:00,2.3,北北西,5.3,北北西,4.3,89.1,0,0,0,19.5
146,2024-02-26T02:25:00,2.2,北北西,3.5,北北西,4.2,90.5,0,0,0,19.5
147,2024-02-26T02:26:00,2.2,北,3.6,北,4.2,91.6,0,0,0,19.5
148,2024-02-26T02:27:00,2.3,北,3.8,北,4.1,92.4,0,0,0,19.5
149,2024-02-26T02:28:00,2.3,北,4.1,北北西,3.9,93,0,0,0,19.5
150,2024-02-26T02:29:00,2.4,北,4.1,北北西,3.9,93.5,0,0,0,19.5
151,2024-02-26T02:30:00,2.5,北,4.1,北北西,3.7,94,0,0,0,19.5
152,2024-02-26T02:31:00,2.6,北,4.5,北北西,3.6,94.6,0,0,0,19.5
153,2024-02-26T02:32:00,2.6,北,4.5,北北西,3.9,95.4,0,0,0,19.5
154,2024-02-26T02:33:00,2.7,北,4.5,北北西,3.8,95.7,0,0,0,19.5
155,2024-02-26T02:34:00,2.7,北,4.5,北北西,3.7,95.5,0,0,0,19.5
156,2024-02-26T02:35:00,2.7,北,4.5,北北西,3.7,95.8,0,0,0,19.5
157,2024-02-26T02:36:00,2.8,北,4.5,北北西,3.7,95.9,0,0,0,19.5
158,2024-02-26T02:37:00,2.8,北,4.5,北北西,3.7,95.9,0,0,0,19.5
159,2024-02-26T02:38:00,2.8,北北西,4.5,北北西,3.8,96.1,0,0,0,19.5
160,2024-02-26T02:39:00,2.8,北北西,4.5,北北西,3.7,96,0,0,0,19.5
161,2024-02-26T02:40:00,2.8,北北西,4.5,北北西,3.6,95.9,0,0,0,19.5
162,2024-02-26T02:41:00,2.6,北,4.3,北,3.5,95.8,0,0,0,19.5
163,2024-02-26T02:42:00,2.6,北,4.3,北,3.7,96.1,0,0,0,19.5
164,2024-02-26T02:43:00,2.5,北,4.3,北,4.2,96.4,0,0,0,19.5
165,2024-02-26T02:44:00,2.5,北,4.4,北北西,4.1,95.7,0,0,0,19.5
166,2024-02-26T02:45:00,2.5,北北西,4.4,北北西,3.9,94.8,0,0,0,19.5
167,2024-02-26T02:46:00,2.4,北北西,4.4,北北西,3.8,94.6,0,0,0,19.5
168,2024-02-26T02:47:00,2.3,北,4.4,北北西,3.7,94.7,0,0,0,19.5
169,2024-02-26T02:48:00,2.2,北,4.4,北北西,3.7,95.1,0,0,0,19.5
170,2024-02-26T02:49:00,2.2,北北西,4.4,北北西,3.7,95.2,0,0,0,19.5
171,2024-02-26T02:50:00,2.2,北北西,4.4,北北西,3.8,95.4,0,0,0,19.5
172,2024-02-26T02:51:00,2.3,北北西,4.4,北北西,3.8,95.5,0,0,0,19.5
173,2024-02-26T02:52:00,2.3,北北西,4.4,北北西,3.7,95.5,0,0,0,19.5
174,2024-02-26T02:53:00,2.4,北,4.4,北北西,3.7,95.5,0,0,0,19.5
175,2024-02-26T02:54:00,2.4,北,3.7,北,3.7,95.6,0,0,0,19.5
176,2024-02-26T02:55:00,2.4,北,3.7,北,3.7,95.6,0,0,0,19.5
177,2024-02-26T02:56:00,2.4,北,3.7,北,3.8,95.7,0,0,0,19.5
178,2024-02-26T02:57:00,2.4,北,3.7,北,3.7,95.7,0,0,0,19.5
179,2024-02-26T02:58:00,2.5,北,3.7,北,3.8,95.8,0,0,0,19.5
180,2024-02-26T02:59:00,2.5,北,3.7,北,3.8,95.8,0,0,0,19.5
181,2024-02-26T03:00:00,2.5,北,3.7,北,3.8,95.8,0,0,0,19.5
182,2024-02-26T03:01:00,2.4,北,3.7,北,3.7,95.7,0,0,0,19.5
183,2024-02-26T03:02:00,2.4,北,3.4,北,3.7,95.7,0,0,0,19.5
184,2024-02-26T03:03:00,2.3,北,3.4,北,3.7,95.7,0,0,0,19.5
185,2024-02-26T03:04:00,2.3,北,3.4,北,3.7,95.8,0,0,0,19.5
186,2024-02-26T03:05:00,2.1,北,3.4,北,3.7,95.8,0,0,0,19.5
187,2024-02-26T03:06:00,2.1,北,3.4,北,3.7,95.8,0,0,0,19.5
188,2024-02-26T03:07:00,2.2,北,3.5,北北東,3.7,95.8,0,0,0,19.5
189,2024-02-26T03:08:00,2.2,北,3.8,北,3.7,95.7,0,0,0,19.5
190,2024-02-26T03:09:00,2.1,北,3.8,北,3.6,95.8,0,0,0,19.5
191,2024-02-26T03:10:00,2.1,北,3.8,北,3.6,95.8,0,0,0,19.5
192,2024-02-26T03:11:00,2.1,北,3.8,北,3.6,95.9,0,0,0,19.5
193,2024-02-26T03:12:00,2,北,3.8,北,3.7,96,0,0,0,19.5
194,2024-02-26T03:13:00,1.9,北,3.8,北,3.7,96.2,0,0,0,19.5
195,2024-02-26T03:14:00,1.9,北,3.8,北,3.7,96.2,0,0,0,19.5
196,2024-02-26T03:15:00,2.1,北,3.8,北,3.6,96.2,0,0,0,19.5
197,2024-02-26T03:16:00,2.1,北,3.8,北,3.5,96.2,0,0,0,19.5
198,2024-02-26T03:17:00,2,北,3.8,北,3.5,96.4,0,0,0,19.5
199,2024-02-26T03:18:00,1.9,北,3.4,北北西,3.5,96.5,0.5,0.5,0.5,20
200,2024-02-26T03:19:00,1.9,北,3.4,北北西,3.6,96.7,0.5,0.5,0.5,20
201,2024-02-26T03:20:00,1.9,北,3.4,北北西,3.7,96.9,0.5,0.5,0.5,20
202,2024-02-26T03:21:00,1.8,北,3.4,北北西,3.7,96.9,0.5,0.5,0.5,20
203,2024-02-26T03:22:00,1.8,北,3.4,北北西,3.7,96.9,0.5,0.5,0.5,20
204,2024-02-26T03:23:00,1.9,北,3.4,北北西,3.6,96.9,0.5,0.5,0.5,20
205,2024-02-26T03:24:00,1.9,北,3.4,北北西,3.7,96.8,0.5,0.5,0.5,20
206,2024-02-26T03:25:00,1.8,北,3.4,北北西,3.9,97.1,0.5,0.5,0.5,20
207,2024-02-26T03:26:00,1.7,北,2.9,北,3.8,96.9,0.5,0.5,0.5,20
208,2024-02-26T03:27:00,1.6,北,2.9,北,3.9,96.8,0.5,0.5,0.5,20
209,2024-02-26T03:28:00,1.5,北,2.9,北,3.9,96.6,0,0.5,0.5,20
210,2024-02-26T03:29:00,1.6,北,2.9,北,4,96.5,0,0.5,0.5,20
211,2024-02-26T03:30:00,1.5,北,2.9,北,4,96.4,0,0.5,0.5,20
212,2024-02-26T03:31:00,1.6,北,2.9,北,4,96.4,0,0.5,0.5,20
213,2024-02-26T03:32:00,1.5,北,2.9,北,4.1,96.3,0,0.5,0.5,20
214,2024-02-26T03:33:00,1.5,北,2.9,北,4.1,96.2,0,0.5,0.5,20
215,2024-02-26T03:34:00,1.4,北,2.8,北西,4.2,96,0,0.5,0.5,20
216,2024-02-26T03:35:00,1.3,北,2.6,北北西,4.1,95.7,0,0.5,0.5,20
217,2024-02-26T03:36:00,1.3,北,2.6,北北西,4.1,95.6,0,0.5,0.5,20
218,2024-02-26T03:37:00,1.4,北,2.6,北北西,4.2,95.6,0,0.5,0.5,20
219,2024-02-26T03:38:00,1.4,北北西,2.6,北北西,4.2,95.6,0,0.5,0.5,20
220,2024-02-26T03:39:00,1.4,北北西,2.6,北北西,4.2,95.6,0,0.5,0.5,20
221,2024-02-26T03:40:00,1.4,北北西,2.6,北北西,4.2,95.7,0,0.5,0.5,20
222,2024-02-26T03:41:00,1.3,北北西,2.3,北北西,4.2,95.5,0,0.5,0.5,20
223,2024-02-26T03:42:00,1.3,北西,2.3,北北西,4.3,95.4,0,0.5,0.5,20
224,2024-02-26T03:43:00,1.3,北西,2.9,北西,4.3,95.2,0,0.5,0.5,20
225,2024-02-26T03:44:00,1.4,北西,3.1,北西,4.4,94.6,0,0.5,0.5,20
226,2024-02-26T03:45:00,1.5,北西,3.1,北西,4.4,93.7,0,0.5,0.5,20
227,2024-02-26T03:46:00,1.7,北西,6.3,北西,4.4,92.8,0,0.5,0.5,20
228,2024-02-26T03:47:00,2,北西,6.3,北西,4.5,91.1,0,0.5,0.5,20
229,2024-02-26T03:48:00,2.2,北西,6.3,北西,4.6,88.9,0.5,1,1,20.5
230,2024-02-26T03:49:00,2.3,北西,6.3,北西,4.6,88.3,0.5,1,1,20.5
231,2024-02-26T03:50:00,2.6,北西,6.3,北西,4.6,88.2,0.5,1,1,20.5
232,2024-02-26T03:51:00,2.8,北西,6.3,北西,4.6,88.2,0.5,1,1,20.5
233,2024-02-26T03:52:00,3,北西,6.3,北西,4.5,88.4,0.5,1,1,20.5
234,2024-02-26T03:53:00,3.3,北西,6.3,北西,4.5,88.8,0.5,1,1,20.5
235,2024-02-26T03:54:00,3.3,北西,6.3,北西,4.5,89.3,0.5,1,1,20.5
236,2024-02-26T03:55:00,3.3,北西,6.3,北西,4.6,88.8,0.5,1,1,20.5
237,2024-02-26T03:56:00,3.2,北西,6.2,北北西,4.5,89.4,0.5,1,1,20.5
238,2024-02-26T03:57:00,3,北西,5.1,北西,4.5,89.4,0.5,1,1,20.5
239,2024-02-26T03:58:00,3,北西,5.1,北西,4.5,89.1,0,1,1,20.5
240,2024-02-26T03:59:00,3,北西,5.1,北西,4.5,88.2,0,1,1,20.5
241,2024-02-26T04:00:00,2.9,北西,5.4,北西,4.6,87.7,0,1,1,20.5
242,2024-02-26T04:01:00,3,北西,5.4,北西,4.6,87.5,0,1,1,20.5
243,2024-02-26T04:02:00,3,北西,5.5,北北西,4.6,87.7,0,1,1,20.5
244,2024-02-26T04:03:00,3,北西,5.5,北北西,4.5,87.9,0,1,1,20.5
245,2024-02-26T04:04:00,3,北西,5.5,北北西,4.5,88.6,0,1,1,20.5
246,2024-02-26T04:05:00,3.1,北西,5.5,北北西,4.4,89.4,0,1,1,20.5
247,2024-02-26T04:06:00,3.2,北西,5.5,北北西,4.4,90.1,0,1,1,20.5
248,2024-02-26T04:07:00,3.3,北西,5.5,北北西,4.4,89.9,0,1,1,20.5
249,2024-02-26T04:08:00,3.4,北西,5.6,西北西,4.5,89.1,0,1,1,20.5
250,2024-02-26T04:09:00,3.5,北西,5.6,西北西,4.5,88.6,0.5,1.5,1.5,21
251,2024-02-26T04:10:00,3.5,北西,5.6,西北西,4.5,88.6,0.5,1.5,1.5,21
252,2024-02-26T04:11:00,3.3,北西,5.6,西北西,4.5,88.6,0.5,1.5,1.5,21
253,2024-02-26T04:12:00,3.3,北西,5.6,西北西,4.5,88.9,0.5,1.5,1.5,21
254,2024-02-26T04:13:00,3.4,北西,6.3,北西,4.5,88.9,0.5,1.5,1.5,21
255,2024-02-26T04:14:00,3.5,北西,6.3,北西,4.5,89.4,0.5,1.5,1.5,21
256,2024-02-26T04:15:00,3.6,北西,6.3,北西,4.5,89.6,0.5,1.5,1.5,21
257,2024-02-26T04:16:00,3.6,北西,6.3,北西,4.5,89.2,0.5,1.5,1.5,21
258,2024-02-26T04:17:00,3.6,北西,6.3,北西,4.5,89.4,0.5,1.5,1.5,21
259,2024-02-26T04:18:00,3.5,北西,6.3,北西,4.6,88.3,0.5,1,1.5,21
260,2024-02-26T04:19:00,3.5,北西,6.3,北西,4.6,87.8,0,1,1.5,21
261,2024-02-26T04:20:00,3.4,北西,6.3,北西,4.6,87.6,0,1,1.5,21
262,2024-02-26T04:21:00,3.5,北西,6.3,北西,4.6,87.3,0,1,1.5,21
263,2024-02-26T04:22:00,3.6,北西,6.3,北西,4.6,86.9,0,1,1.5,21
264,2024-02-26T04:23:00,3.4,北西,5.6,北北西,4.6,86.9,0,1,1.5,21
265,2024-02-26T04:24:00,3.4,北西,5.6,北北西,4.7,86.9,0,1,1.5,21
266,2024-02-26T04:25:00,3.3,北西,5.5,西北西,4.6,86.8,0,1,1.5,21
267,2024-02-26T04:26:00,3.4,北西,5.5,西北西,4.7,86.5,0,1,1.5,21
268,2024-02-26T04:27:00,3.4,北西,5.5,西北西,4.7,86.4,0,1,1.5,21
269,2024-02-26T04:28:00,3.5,西北西,5.5,西北西,4.6,86.8,0,1,1.5,21
270,2024-02-26T04:29:00,3.7,西北西,5.6,北西,4.6,87.3,0,1,1.5,21
271,2024-02-26T04:30:00,4.1,西北西,7.9,西北西,4.7,86.6,0,1,1.5,21
272,2024-02-26T04:31:00,4.1,西北西,7.9,西北西,4.8,85.9,0,1,1.5,21
273,2024-02-26T04:32:00,4,西北西,7.9,西北西,4.7,85.9,0,1,1.5,21
274,2024-02-26T04:33:00,4,北西,7.9,西北西,4.7,86.8,0,1,1.5,21
275,2024-02-26T04:34:00,4,北西,7.9,西北西,4.6,87.7,0,1,1.5,21
276,2024-02-26T04:35:00,4.1,北西,7.9,西北西,4.6,87.3,0,1,1.5,21
277,2024-02-26T04:36:00,4.1,北西,7.9,西北西,4.6,87.6,0,1,1.5,21
278,2024-02-26T04:37:00,4.1,北西,7.9,西北西,4.4,88.5,0,1,1.5,21
279,2024-02-26T04:38:00,4,北西,7.9,西北西,4.4,89.5,0,1,1.5,21
280,2024-02-26T04:39:00,3.9,北西,7.9,西北西,4.4,89.9,0,1,1.5,21
281,2024-02-26T04:40:00,3.6,北西,6.2,北西,4.5,89.1,0,1,1.5,21
282,2024-02-26T04:41:00,3.5,北西,5.6,北北西,4.5,88.3,0,1,1.5,21
283,2024-02-26T04:42:00,3.6,北西,6,西北西,4.5,88.2,0,1,1.5,21
284,2024-02-26T04:43:00,3.7,北西,7.1,北西,4.6,87.6,0,1,1.5,21
285,2024-02-26T04:44:00,3.7,北西,7.1,北西,4.6,86.7,0,1,1.5,21
286,2024-02-26T04:45:00,3.7,北西,7.1,北西,4.6,86.5,0,1,1.5,21
287,2024-02-26T04:46:00,3.7,北西,7.1,北西,4.7,86,0,1,1.5,21
288,2024-02-26T04:47:00,4,北西,8.1,北西,4.7,85.8,0,1,1.5,21
289,2024-02-26T04:48:00,4.2,北西,8.1,北西,4.8,84.7,0,0.5,1.5,21
290,2024-02-26T04:49:00,4.4,西北西,8.1,北西,4.9,83.3,0,0.5,1.5,21
291,2024-02-26T04:50:00,4.4,西北西,8.1,北西,4.9,83.2,0,0.5,1.5,21
292,2024-02-26T04:51:00,4.3,西北西,8.1,北西,4.8,83.7,0,0.5,1.5,21
293,2024-02-26T04:52:00,4.1,北西,8.1,北西,4.7,84.8,0,0.5,1.5,21
294,2024-02-26T04:53:00,4,北西,8.1,北西,4.7,85.4,0,0.5,1.5,21
295,2024-02-26T04:54:00,3.9,北西,8.1,北西,4.6,86.4,0,0.5,1.5,21
296,2024-02-26T04:55:00,3.8,北西,8.1,北西,4.4,87.8,0,0.5,1.5,21
297,2024-02-26T04:56:00,3.6,北北西,8.1,北西,4.4,88.4,0,0.5,1.5,21
298,2024-02-26T04:57:00,3.3,北北西,7.7,北西,4.3,89.3,0,0.5,1.5,21
299,2024-02-26T04:58:00,3.1,北北西,6.6,西北西,4.5,88.5,0,0.5,1.5,21
300,2024-02-26T04:59:00,2.9,北北西,5.5,北西,4.5,88.5,0,0.5,1.5,21
301,2024-02-26T05:00:00,3.1,北北西,5.5,北西,4.6,87,0,0.5,1.5,21
302,2024-02-26T05:01:00,3.2,北北西,5.5,北西,4.6,87,0,0.5,1.5,21
303,2024-02-26T05:02:00,3.3,北北西,5.5,北西,4.7,86.3,0,0.5,1.5,21
304,2024-02-26T05:03:00,3.3,北北西,5.5,北西,4.7,86.1,0,0.5,1.5,21
305,2024-02-26T05:04:00,3.3,北北西,5.5,北西,4.6,86,0,0.5,1.5,21
306,2024-02-26T05:05:00,3.4,北西,5.5,北西,4.7,85.6,0,0.5,1.5,21
307,2024-02-26T05:06:00,3.4,北西,5.5,北西,4.6,86.2,0,0.5,1.5,21
308,2024-02-26T05:07:00,3.4,北西,5.5,北西,4.5,87.3,0,0.5,1.5,21
309,2024-02-26T05:08:00,3.3,北西,5.5,北西,4.5,88,0,0.5,1.5,21
310,2024-02-26T05:09:00,3.3,北西,6.2,北北西,4.4,89,0,0,1.5,21
311,2024-02-26T05:10:00,3.2,北西,6.2,北北西,4.4,89.4,0,0,1.5,21
312,2024-02-26T05:11:00,3.1,北西,6.2,北北西,4.4,89.4,0,0,1.5,21
313,2024-02-26T05:12:00,3.1,北西,6.2,北北西,4.4,89.8,0,0,1.5,21
314,2024-02-26T05:13:00,3.2,北北西,6.2,北北西,4.5,89.6,0,0,1.5,21
315,2024-02-26T05:14:00,3.2,北北西,6.2,北北西,4.5,88.4,0,0,1.5,21
316,2024-02-26T05:15:00,3.2,北北西,6.2,北北西,4.6,87.7,0,0,1.5,21
317,2024-02-26T05:16:00,3.2,北北西,6.2,北北西,4.5,88,0,0,1.5,21
318,2024-02-26T05:17:00,3.1,北北西,6.2,北北西,4.5,88.8,0,0,1.5,21
319,2024-02-26T05:18:00,3,北北西,6.2,北北西,4.4,89.8,0,0,1.5,21
320,2024-02-26T05:19:00,2.9,北北西,5.4,北北西,4.4,90.3,0,0,1.5,21
321,2024-02-26T05:20:00,2.7,北北西,5.4,北北西,4.3,90.7,0,0,1.5,21
322,2024-02-26T05:21:00,2.7,北北西,5.4,北北西,4.3,90.9,0,0,1.5,21
323,2024-02-26T05:22:00,2.7,北北西,5.4,北北西,4.3,90.7,0,0,1.5,21
324,2024-02-26T05:23:00,2.6,北北西,6.7,北北西,4.4,90.3,0,0,1.5,21
325,2024-02-26T05:24:00,2.6,北北西,6.7,北北西,4.4,89.9,0,0,1.5,21
326,2024-02-26T05:25:00,2.7,北北西,6.7,北北西,4.4,89.4,0,0,1.5,21
327,2024-02-26T05:26:00,2.7,北北西,6.7,北北西,4.5,88.9,0,0,1.5,21
328,2024-02-26T05:27:00,2.9,北北西,6.7,北北西,4.5,88.7,0,0,1.5,21
329,2024-02-26T05:28:00,3,北北西,6.7,北北西,4.4,88.6,0,0,1.5,21
330,2024-02-26T05:29:00,3.1,北北西,6.7,北北西,4.4,88.5,0,0,1.5,21
331,2024-02-26T05:30:00,3.2,北北西,6.7,北北西,4.5,87.4,0,0,1.5,21
332,2024-02-26T05:31:00,3.1,北北西,6.7,北北西,4.5,87.3,0,0,1.5,21
333,2024-02-26T05:32:00,3,北北西,6.7,北北西,4.4,88,0,0,1.5,21
334,2024-02-26T05:33:00,2.9,北北西,5.6,北北西,4.4,88.5,0,0,1.5,21
335,2024-02-26T05:34:00,2.8,北北西,5.6,北北西,4.4,88.9,0,0,1.5,21
336,2024-02-26T05:35:00,2.8,北北西,5.2,北西,4.3,89.1,0,0,1.5,21
337,2024-02-26T05:36:00,2.8,北北西,5.2,北西,4.3,88.9,0,0,1.5,21
338,2024-02-26T05:37:00,2.8,北北西,5.2,北西,4.4,88.5,0,0,1.5,21
339,2024-02-26T05:38:00,2.8,北北西,4.6,西北西,4.3,89,0,0,1.5,21
340,2024-02-26T05:39:00,2.7,北北西,4.3,北西,4.3,89,0,0,1.5,21
341,2024-02-26T05:40:00,2.7,北北西,4.3,北西,4.3,89,0,0,1.5,21
342,2024-02-26T05:41:00,2.8,北北西,4.3,北西,4.4,88.6,0,0,1.5,21
343,2024-02-26T05:42:00,2.9,北西,4.4,北西,4.4,87.9,0,0,1.5,21
344,2024-02-26T05:43:00,2.9,北西,4.4,北西,4.5,87.1,0,0,1.5,21
345,2024-02-26T05:44:00,2.8,北西,4.4,北西,4.5,85.7,0,0,1.5,21
346,2024-02-26T05:45:00,2.7,北西,4.4,北西,4.5,85.8,0,0,1.5,21
347,2024-02-26T05:46:00,2.5,北西,4.4,北西,4.5,86.1,0,0,1.5,21
348,2024-02-26T05:47:00,2.3,北西,4.4,北西,4.4,86.5,0,0,1.5,21
349,2024-02-26T05:48:00,2.2,北西,4.4,北西,4.4,87.1,0,0,1.5,21
350,2024-02-26T05:49:00,2.2,北西,4.4,北西,4.4,87.4,0,0,1.5,21
351,2024-02-26T05:50:00,2.3,北西,4.4,北西,4.3,87.7,0,0,1.5,21
352,2024-02-26T05:51:00,2.2,北西,4.4,北西,4.3,88.2,0,0,1.5,21
353,2024-02-26T05:52:00,2.1,北北西,4.2,北北西,4.3,88.7,0,0,1.5,21
354,2024-02-26T05:53:00,2,北北西,4.2,北北西,4.3,88.7,0,0,1.5,21
355,2024-02-26T05:54:00,2,北北西,4.2,北北西,4.3,88.6,0,0,1.5,21
356,2024-02-26T05:55:00,1.9,北北西,4.2,北北西,4.2,89.5,0,0,1.5,21
357,2024-02-26T05:56:00,1.9,北北西,4.2,北北西,4.2,90.2,0,0,1.5,21
358,2024-02-26T05:57:00,1.9,北北西,4.2,北北西,4.2,90.4,0,0,1.5,21
359,2024-02-26T05:58:00,1.9,北北西,4.2,北北西,4.2,90.5,0,0,1.5,21
360,2024-02-26T05:59:00,1.8,北北西,4.2,北北西,4.2,90.7,0,0,1.5,21
361,2024-02-26T06:00:00,1.7,北北西,3.7,北,4.1,91,0,0,1.5,21
362,2024-02-26T06:01:00,1.7,北北西,3.5,北北西,4.1,91.4,0,0,1.5,21
363,2024-02-26T06:02:00,1.6,北,3.5,北北西,4.1,91.6,0,0,1.5,21
364,2024-02-26T06:03:00,1.6,北,3.5,北北西,4.1,91.6,0,0,1.5,21
365,2024-02-26T06:04:00,1.5,北,3.5,北北西,4.1,91.9,0,0,1.5,21
366,2024-02-26T06:05:00,1.6,北,3.5,北北西,4.1,91.9,0,0,1.5,21
367,2024-02-26T06:06:00,1.8,北,3.6,北西,4.1,91.9,0,0,1.5,21
368,2024-02-26T06:07:00,1.8,北,3.6,北西,4.1,92.4,0,0,1.5,21
369,2024-02-26T06:08:00,1.7,北,3.6,北西,4.1,92.5,0,0,1.5,21
370,2024-02-26T06:09:00,1.7,北,4.5,北北西,4.1,92.1,0,0,1.5,21
371,2024-02-26T06:10:00,1.9,北,6.4,北北東,4.2,91.1,0,0,1.5,21
372,2024-02-26T06:11:00,2,北,6.4,北北東,4.2,90,0.5,0.5,2,21.5
373,2024-02-26T06:12:00,2,北,6.4,北北東,4.1,90.5,0.5,0.5,2,21.5
374,2024-02-26T06:13:00,2,北,6.4,北北東,4.1,90.5,0.5,0.5,2,21.5
375,2024-02-26T06:14:00,2.2,北,6.4,北北東,4.1,90.7,0.5,0.5,2,21.5
376,2024-02-26T06:15:00,2.3,北北西,6.4,北北東,4.2,88.8,0.5,0.5,2,21.5
377,2024-02-26T06:16:00,2.3,北北西,6.4,北北東,4.2,87.7,0.5,0.5,2,21.5
378,2024-02-26T06:17:00,2.5,北北西,6.4,北北東,4.2,87.3,0.5,0.5,2,21.5
379,2024-02-26T06:18:00,2.7,北北西,6.4,北北東,4.2,86.8,0.5,0.5,2,21.5
380,2024-02-26T06:19:00,2.8,北北西,6.4,北北東,4.2,86.6,0.5,0.5,2,21.5
381,2024-02-26T06:20:00,2.9,北北西,6.4,北北西,4.2,87.1,0.5,0.5,2,21.5
382,2024-02-26T06:21:00,3.1,北北西,8,北西,4.2,86.3,0,0.5,2,21.5
383,2024-02-26T06:22:00,3.5,北北西,8,北西,4.3,84.5,0,0.5,2,21.5
384,2024-02-26T06:23:00,3.7,北北西,8,北西,4.4,83.4,0,0.5,2,21.5
385,2024-02-26T06:24:00,3.8,北北西,8,北西,4.4,82.5,0,0.5,2,21.5
386,2024-02-26T06:25:00,3.9,北西,8,北西,4.5,81.5,0,0.5,2,21.5
387,2024-02-26T06:26:00,4.1,北西,8,北西,4.4,81.8,0,0.5,2,21.5
388,2024-02-26T06:27:00,4,北西,8,北西,4.4,82.2,0,0.5,2,21.5
389,2024-02-26T06:28:00,4.1,北西,8,北西,4.4,81.6,0,0.5,2,21.5
390,2024-02-26T06:29:00,4.2,北西,8,北西,4.4,81.7,0,0.5,2,21.5
391,2024-02-26T06:30:00,4.1,西北西,8,北西,4.5,80.9,0,0.5,2,21.5
392,2024-02-26T06:31:00,4.1,西北西,7.8,北,4.4,81.7,0,0.5,2,21.5
393,2024-02-26T06:32:00,4,西北西,6.8,西,4.4,82.5,0,0.5,2,21.5
394,2024-02-26T06:33:00,3.9,西北西,6.8,西,4.3,83.2,0,0.5,2,21.5
395,2024-02-26T06:34:00,3.8,北西,5.9,西北西,4.2,84.3,0,0.5,2,21.5
396,2024-02-26T06:35:00,3.9,北西,6,西北西,4.3,84,0,0.5,2,21.5
397,2024-02-26T06:36:00,4,北西,6,西北西,4.3,84.3,0,0.5,2,21.5
398,2024-02-26T06:37:00,4.1,北西,6,西北西,4.3,84.6,0,0.5,2,21.5
399,2024-02-26T06:38:00,4,北西,6,西北西,4.2,85.2,0,0.5,2,21.5
400,2024-02-26T06:39:00,3.9,北西,6,西北西,4.2,85.7,0,0.5,2,21.5
401,2024-02-26T06:40:00,3.8,北西,6,西北西,4.1,86.4,0,0.5,2,21.5
402,2024-02-26T06:41:00,3.6,北北西,6,西北西,4.1,87.3,0,0.5,2,21.5
403,2024-02-26T06:42:00,3.4,北北西,6,西北西,4.1,87.9,0,0.5,2,21.5
404,2024-02-26T06:43:00,3.3,北北西,6,西北西,4,88.5,0,0.5,2,21.5
405,2024-02-26T06:44:00,3.1,北北西,6,西北西,4,88.9,0,0.5,2,21.5
406,2024-02-26T06:45:00,2.9,北北西,6,北北西,4,89.2,0,0.5,2,21.5
407,2024-02-26T06:46:00,2.5,北,5.8,北北西,4.1,88.8,0,0.5,2,21.5
408,2024-02-26T06:47:00,2.2,北,4.9,北西,4.1,88.8,0,0.5,2,21.5
409,2024-02-26T06:48:00,2,北,4.6,北,4.1,88.5,0,0.5,2,21.5
410,2024-02-26T06:49:00,1.9,北,4.6,北,4.1,88.7,0,0.5,2,21.5